Weather reports worldwide

Advertisment
Capo Mele, Italy (16153): temperature & dewpoint: 15.05.2019 16:00:00 - 21.05.2019 16:00:00 (CEST)Capo Mele, Italy (16153): wind speed: 15.05.2019 16:00:00 - 21.05.2019 16:00:00 (CEST)Capo Mele, Italy (16153): wind direction: 15.05.2019 16:00:00 - 21.05.2019 16:00:00 (CEST)Capo Mele, Italy (16153): reduced air pressure: 15.05.2019 16:00:00 - 21.05.2019 16:00:00 (CEST)Capo Mele, Italy (16153): visibility: 15.05.2019 16:00:00 - 21.05.2019 16:00:00 (CEST)Capo Mele, Italy (16153): sunshine duration: 15.05.2019 16:00:00 - 21.05.2019 16:00:00 (CEST)
Date & Time tt [°C] td [°C] ff [km/h] ff [kn] dd ppp [hPa] vv [km] sd [min]
21.05.2019 16:00:00 - - - - - - - -
21.05.2019 15:00:00 16,6 13,5 0 0 N 1011,4 20 6
21.05.2019 14:00:00 18,8 13,7 0 0 N 1010,8 20 0
21.05.2019 13:00:00 17,6 13,3 0 0 N 1010,8 20 12
21.05.2019 12:00:00 16,2 12,7 0 0 N 1010,8 20 0
21.05.2019 11:00:00 14,8 12,5 0 0 N 1010,6 20 0
21.05.2019 10:00:00 14,2 12,2 0 0 N 1010,1 10 0
21.05.2019 09:00:00 13,2 11,3 4 2 SW 1009,4 10 0
21.05.2019 08:00:00 12,6 11,5 8 4 SW 1009,2 12 -
21.05.2019 07:00:00 12,0 10,9 0 0 N 1009,2 15 -
21.05.2019 06:00:00 12,2 11,3 4 2 SW 1009,2 15 -
21.05.2019 05:00:00 12,2 11,3 0 0 N 1009,2 20 -
21.05.2019 04:00:00 11,8 11,0 0 0 N 1009,4 30 -
21.05.2019 03:00:00 12,2 11,4 0 0 N 1009,4 30 -
21.05.2019 02:00:00 12,2 11,4 0 0 N 1009,4 20 -
21.05.2019 01:00:00 12,2 11,4 0 0 N 1009,2 30 -
21.05.2019 00:00:00 12,8 12,0 0 0 N 1009,2 35 -
20.05.2019 23:00:00 12,8 12,0 0 0 N 1009,1 35 -
20.05.2019 22:00:00 12,8 12,0 0 0 N 1008,4 30 -
20.05.2019 21:00:00 13,0 12,2 4 2 SW 1008,3 20 -
20.05.2019 20:00:00 13,2 12,4 0 0 N 1008,1 20 0
20.05.2019 19:00:00 14,2 12,9 0 0 N 1007,9 20 0
20.05.2019 18:00:00 14,6 13,0 5 3 WSW 1007,7 20 0
20.05.2019 17:00:00 13,8 13,0 5 3 WSW 1007,8 20 0
20.05.2019 16:00:00 13,2 13,2 9 5 SW 1007,8 10 0
20.05.2019 15:00:00 15,4 13,4 28 15 WSW 1006,9 20 18
20.05.2019 14:00:00 15,8 13,1 28 15 WSW 1006,8 30 42
20.05.2019 13:00:00 16,2 12,9 18 10 SSE 1006,6 20 48
20.05.2019 12:00:00 15,4 12,4 18 10 NNE 1006,7 20 60
20.05.2019 11:00:00 14,8 12,3 5 3 NNE 1008,1 30 48
20.05.2019 10:00:00 14,2 11,9 5 3 NNE 1005,9 30 24
20.05.2019 09:00:00 13,2 11,1 5 3 NNE 1005,3 20 18
20.05.2019 08:00:00 12,6 11,7 0 0 N 1004,7 20 -
20.05.2019 07:00:00 12,0 12,0 0 0 N 1004,7 20 -
20.05.2019 06:00:00 11,8 11,8 0 0 N 1005,2 20 -
20.05.2019 05:00:00 11,8 10,9 0 0 N 1005,2 20 -
20.05.2019 04:00:00 12,0 10,9 0 0 N 1005,4 20 -
20.05.2019 03:00:00 12,0 10,7 0 0 N 1005,7 20 -
20.05.2019 02:00:00 12,0 10,6 0 0 N 1006,1 20 -
20.05.2019 01:00:00 12,0 11,7 0 0 N 1006,1 20 -
20.05.2019 00:00:00 12,0 11,8 0 0 N 1006,1 20 -
19.05.2019 23:00:00 12,0 11,7 0 0 N 1006,1 20 -
19.05.2019 22:00:00 12,2 10,8 0 0 N 1005,7 20 -
19.05.2019 21:00:00 12,2 11,6 0 0 N 1005,7 20 -
19.05.2019 20:00:00 13,2 11,3 4 2 SW 1005,2 15 0
19.05.2019 19:00:00 13,6 11,5 0 0 N 1005,1 10 0
19.05.2019 18:00:00 13,4 12,0 0 0 N 1005,0 10 6
19.05.2019 17:00:00 14,2 10,2 18 10 SW 1004,9 20 6
19.05.2019 16:00:00 14,8 11,8 15 8 SW 1004,9 20 0
19.05.2019 15:00:00 15,0 13,0 15 8 SW 1004,8 20 0
19.05.2019 14:00:00 13,4 12,8 15 8 SW 1004,9 20 0
19.05.2019 13:00:00 13,2 12,4 11 6 SW 1004,7 10 0
19.05.2019 12:00:00 12,8 12,7 15 8 SW 1004,8 10 0
19.05.2019 11:00:00 12,6 12,3 8 4 SW 1004,7 20 0
19.05.2019 10:00:00 12,6 12,6 0 0 N 1004,7 20 0
19.05.2019 09:00:00 12,6 12,6 0 0 N 1004,5 20 0
19.05.2019 08:00:00 11,8 11,8 5 3 NNE 1004,5 20 -
19.05.2019 07:00:00 12,0 11,7 0 0 N 1004,5 15 -
19.05.2019 06:00:00 11,8 11,7 9 5 SW 1005,0 20 -
19.05.2019 05:00:00 12,0 11,2 9 5 SW 1005,1 20 -
19.05.2019 04:00:00 12,6 11,8 9 5 SSW 1005,3 20 -
19.05.2019 03:00:00 12,8 12,7 9 5 SSW 1006,0 20 -
19.05.2019 02:00:00 13,0 10,5 9 5 SSW 1006,0 30 -
19.05.2019 01:00:00 13,6 9,1 9 5 SSW 1006,1 30 -
19.05.2019 00:00:00 13,6 10,0 5 3 SSW 1006,1 30 -
18.05.2019 23:00:00 13,6 10,0 0 0 N 1006,1 20 -
18.05.2019 22:00:00 13,2 9,6 5 3 SSW 1006,1 30 -
18.05.2019 21:00:00 13,8 9,2 9 5 SW 1006,0 30 -
18.05.2019 20:00:00 13,4 9,5 5 3 W 1005,7 30 0
18.05.2019 19:00:00 13,8 9,3 15 8 N 1005,5 10 0
18.05.2019 18:00:00 14,0 9,4 4 2 N 1005,1 20 0
18.05.2019 17:00:00 14,0 9,8 8 4 ESE 1005,0 30 0
18.05.2019 16:00:00 15,0 9,2 9 5 ESE 1004,9 10 0
18.05.2019 15:00:00 16,0 9,7 22 12 N 1004,6 10 0
18.05.2019 14:00:00 14,6 8,8 22 12 N 1004,7 8 0
18.05.2019 13:00:00 14,4 8,8 28 15 N 1004,4 4,0 0
18.05.2019 12:00:00 14,0 8,6 28 15 N 1004,1 4,0 0
18.05.2019 11:00:00 13,8 8,2 37 20 N 1003,9 4,0 -
18.05.2019 10:00:00 12,4 8,7 37 20 NNE 1004,1 4,0 0
18.05.2019 09:00:00 12,2 8,5 37 20 NNE 1004,0 4,0 0
18.05.2019 08:00:00 11,6 8,3 18 10 NE 1004,1 10 0
18.05.2019 07:00:00 12,0 9,0 22 12 NE 1004,1 10 0
18.05.2019 06:00:00 12,6 7,7 18 10 NE 1003,6 10 -
18.05.2019 05:00:00 12,6 7,3 11 6 ENE 1004,0 20 -
18.05.2019 04:00:00 12,8 6,8 15 8 NE 1005,0 20 -
18.05.2019 03:00:00 13,0 7,5 11 6 NE 1005,1 20 -
18.05.2019 02:00:00 13,0 9,3 15 8 NE 1006,1 20 -
18.05.2019 01:00:00 13,0 8,9 15 8 NNE 1006,1 20 -
18.05.2019 00:00:00 14,6 8,3 18 10 NE 1006,3 20 -
17.05.2019 23:00:00 14,8 8,3 18 10 NNE 1006,2 20 -
17.05.2019 22:00:00 15,2 8,4 15 8 NNE 1006,0 20 -
17.05.2019 21:00:00 15,2 7,3 18 10 NE 1005,9 20 -
17.05.2019 20:00:00 14,8 6,6 18 10 NNE 1006,0 45 0
17.05.2019 19:00:00 14,8 11,2 18 10 NNE 1006,9 45 0
17.05.2019 18:00:00 15,4 11,2 9 5 NNE 1006,9 20 0
17.05.2019 17:00:00 15,4 11,4 15 8 NNE 1007,9 20 0
17.05.2019 16:00:00 15,8 11,2 18 10 NE 1008,6 40 0
17.05.2019 15:00:00 17,0 11,9 15 8 NNE 1008,6 35 0
17.05.2019 14:00:00 17,6 12,5 18 10 NNE 1008,7 35 42
17.05.2019 13:00:00 17,0 12,1 15 8 NNE 1008,7 20 18
17.05.2019 12:00:00 16,4 12,6 18 10 NNE 1008,8 20 0
17.05.2019 11:00:00 15,0 12,9 15 8 NNE 1008,9 20 0
17.05.2019 10:00:00 14,0 12,2 15 8 NNE 1009,1 30 0
17.05.2019 09:00:00 13,4 12,1 9 5 NNE 1009,1 30 0
17.05.2019 08:00:00 12,2 11,4 0 0 N 1009,3 20 0
17.05.2019 07:00:00 12,0 11,5 8 4 NNE 1009,2 20 0
17.05.2019 06:00:00 12,2 10,8 11 6 NNE 1009,2 20 -
17.05.2019 05:00:00 12,4 10,6 8 4 NNE 1009,6 20 -
17.05.2019 04:00:00 12,8 10,5 0 0 N 1010,2 50 -
17.05.2019 03:00:00 12,8 10,0 0 0 N 1010,2 50 -
17.05.2019 02:00:00 13,0 10,0 0 0 N 1011,0 50 -
17.05.2019 01:00:00 13,0 9,8 0 0 N 1011,2 50 -
17.05.2019 00:00:00 13,0 9,8 4 2 NNE 1011,2 50 -
16.05.2019 23:00:00 13,0 8,9 0 0 N 1011,2 50 -
16.05.2019 22:00:00 13,2 7,4 11 6 SSW 1010,6 50 -
16.05.2019 21:00:00 13,4 7,6 15 8 SSW 1010,3 20 -
16.05.2019 20:00:00 13,4 8,7 18 10 SSW 1010,5 20 0
16.05.2019 19:00:00 13,6 9,5 28 15 W 1010,5 30 54
16.05.2019 18:00:00 15,2 10,4 28 15 W 1010,4 20 60
16.05.2019 17:00:00 16,2 10,7 24 13 WSW 1010,9 20 60
16.05.2019 16:00:00 17,0 10,6 22 12 WSW 1010,2 20 60
16.05.2019 15:00:00 17,2 10,3 18 10 WSW 1010,4 20 60
16.05.2019 14:00:00 16,6 10,2 9 5 S 1011,8 20 60
16.05.2019 13:00:00 16,0 9,0 9 5 S 1012,0 20 60
16.05.2019 12:00:00 16,0 8,7 9 5 S 1012,1 20 60
16.05.2019 11:00:00 17,4 9,3 5 3 SSE 1012,0 20 60
16.05.2019 10:00:00 17,4 9,1 5 3 SSE 1011,8 20 60
16.05.2019 09:00:00 15,0 7,3 0 0 N 1012,0 20 60
16.05.2019 08:00:00 11,8 4,3 0 0 N 1012,3 30 -
16.05.2019 07:00:00 11,8 3,6 0 0 N 1012,1 20 -
16.05.2019 06:00:00 12,0 3,5 4 2 NE 1012,3 30 -
16.05.2019 05:00:00 12,0 3,3 0 0 N 1012,3 20 -
16.05.2019 04:00:00 12,0 3,5 0 0 N 1012,8 20 -
16.05.2019 03:00:00 11,8 3,8 0 0 N 1013,2 30 -
16.05.2019 02:00:00 11,4 4,8 0 0 N 1013,7 30 -
16.05.2019 01:00:00 11,4 5,3 4 2 NE 1014,0 20 -
16.05.2019 00:00:00 11,6 5,5 8 4 NE 1013,9 30 -
15.05.2019 23:00:00 11,6 5,5 8 4 NE 1013,6 20 -
15.05.2019 22:00:00 12,0 5,6 11 6 NNE 1013,4 20 -
15.05.2019 21:00:00 12,8 5,7 8 4 NNE 1012,8 20 -
15.05.2019 20:00:00 15,2 4,3 11 6 NNE 1012,0 20 0
15.05.2019 19:00:00 15,0 6,3 15 8 NNE 1012,0 20 0
15.05.2019 18:00:00 13,2 5,1 11 6 NNE 1012,2 20 0
15.05.2019 17:00:00 14,8 6,4 0 0 NNE 1012,0 20 0
15.05.2019 16:00:00 15,0 1,2 26 14 N 1011,1 20 6

tt = temperature
td = dewpoint
ff = wind speed
dd = wind direction
ppp = reduced air pressure
vv = visibility
sd = sunshine duration

Next stations